Zurück zum Katalog

COSMOS 823

AktivMilitärPO
NORAD 8873·PAYLOAD·🇷🇺 Russia

Gestartet Jun 2, 1976 von Plesetsk Cosmodrome

Loading…

Nächste Überflüge (nächste 24 Stunden)

TLE

AktuellSource: Space-Track

Epoche: Sep 14, 2026, 11:20 UTC

1 08873U 76051A   26257.47237314  .00000021  00000-0  60730-5 0  9992
2 08873  82.9624  70.5738 0021749 330.3581  58.5008 13.73544615519409

Verfolge COSMOS 823 in Echtzeit mit AllMySat

Download on the App Store